Voltar ao catálogo

COSMOS 2251 DEB

AtivoVLEO
NORAD 35670·DEBRIS·🇷🇺 Russia

Lançado Jun 16, 1993 de Plesetsk Cosmodrome

Loading…

Próximas Passagens (próximas 24 horas)

TLE

AtualizadoSource: Space-Track

Época: Sep 14, 2026, 06:36 UTC

1 35670U 93036APM 26257.27512919  .00008405  00000-0  64014-3 0  9995
2 35670  73.8905 220.8922 0027354 125.6233 234.7508 15.01910554918540

Acompanhe COSMOS 2251 DEB em tempo real com AllMySat

Download on the App Store